Location: Hamilton
(37.7830°S, 175.2830°E)
Time: 17:28:13
(UTC+13:00)

Helios 1B rocket - Pass Details

Date: 24 January 2019
Orbit: 575 x 585 km, 98.1° (Epoch: 18 October)

Event Time Altitude Azimuth Distance (km) Brightness Sun altitude
Exits shadow 22:56:37 64° 103° (ESE) 648 2.4 -22.4°
Maximum altitude 22:56:38 64° 105° (ESE) 648 2.4 -22.4°
Drops below altitude 10° 23:00:46 10° 186° (S) 1,921 5.9 -23.0°
Sets 23:02:57 0° 189° (S) 2,830 6.9 -23.2°
